Date,TemperatureHighF,TemperatureAvgF,TemperatureLowF,DewpointHighF,DewpointAvgF,DewpointLowF,HumidityHigh,HumidityAvg,HumidityLow,PressureMaxIn,PressureMinIn,WindSpeedMaxMPH,WindSpeedAvgMPH,GustSpeedMaxMPH,PrecipitationSumIn
2013-9-1,89.0,79.0,68.0,69.0,63.1,49.0,75,60,29,28.46,28.20,9,2,12,0.00
2013-9-2,87.0,71.1,59.0,59.0,54.6,51.0,89,60,30,28.55,28.43,5,0,8,0.00
2013-9-3,92.0,74.4,59.0,65.0,55.4,51.0,89,57,27,28.55,28.43,3,1,5,0.00
2013-9-4,93.0,76.5,62.0,62.0,54.3,50.0,81,50,26,28.58,28.49,3,1,6,0.00
2013-9-5,96.0,77.4,66.0,62.0,57.6,54.0,78,54,26,28.61,28.49,5,1,8,0.00
2013-9-6,99.0,77.3,69.0,63.0,59.4,55.0,72,56,26,28.52,28.37,5,1,7,0.00
2013-9-7,101.0,79.0,71.0,66.0,57.4,-99.9,73,52,25,28.40,28.31,5,2,7,0.00
2013-9-8,100.0,80.8,72.0,61.0,57.9,55.0,64,47,26,28.34,28.25,3,1,7,0.00
2013-9-9,96.0,78.6,69.0,59.0,55.7,51.0,65,47,25,28.34,28.28,4,1,8,0.00
2013-9-10,97.0,80.9,72.0,58.0,55.0,52.0,59,42,25,28.43,28.34,7,3,11,0.00
2013-9-18,79.0,71.7,70.0,66.0,65.0,56.0,85,80,45,28.34,28.22,5,2,7,0.08
2013-9-19,89.0,77.2,67.0,63.0,57.9,53.0,65,52,38,28.46,28.22,8,3,14,0.00
2013-9-20,75.0,64.3,55.0,52.0,45.7,40.0,84,54,31,28.58,28.43,3,0,7,0.00
2013-9-21,88.0,66.2,50.0,57.0,44.0,-99.9,89,54,19,28.46,28.31,5,1,8,0.00
2013-9-22,84.0,68.0,57.0,52.0,46.2,41.0,78,50,22,28.34,28.20,9,2,11,0.00
2013-9-23,82.0,69.6,56.0,48.0,45.0,43.0,71,44,26,28.22,28.08,8,4,14,0.00
2013-9-24,74.0,67.6,59.0,52.0,49.8,45.0,77,54,40,28.34,28.17,9,3,16,0.00
2013-9-25,86.0,66.1,52.0,61.0,50.8,46.0,94,65,26,28.37,28.14,5,1,9,0.00
2013-9-26,91.0,74.2,64.0,55.0,52.4,49.0,71,49,27,28.20,28.11,7,4,11,0.00
2013-9-27,89.0,77.3,70.0,56.0,52.3,49.0,50,42,33,28.25,28.17,8,4,15,0.00
2013-9-28,77.0,62.0,51.0,65.0,44.5,-99.9,91,58,30,28.52,28.14,11,2,11,0.35
2013-9-29,81.0,61.5,45.0,53.0,40.0,34.0,90,54,20,28.55,28.34,3,1,6,0.04
2013-9-30,86.0,62.5,49.0,53.0,44.9,40.0,88,58,23,28.34,28.20,5,2,8,0.00